Location: Cazarilh
(42.9578°N, 0.5819°E)
Time: 02:27:22
(UTC+00:00)

ATLAS CENTAUR R/B - Pass Details

Date: 11 December 2019
Orbit: 454 x 694 km, 64.6° (Epoch: 20 January)

Event Time Altitude Azimuth Distance (km) Brightness Sun altitude
Exits shadow 06:06:32 - 343° (NNW) 2,301 4.1 -12.7°
Reaches altitude 10° 06:07:49 10° 353° (N) 1,890 3.8 -12.5°
Maximum altitude 06:10:56 20° 40° (NE) 1,322 3.5 -11.9°
Drops below altitude 10° 06:13:54 10° 88° (E) 1,772 5.1 -11.4°
Sets 06:16:28 0° 107° (ESE) 2,611 7.0 -11.0°
